Regional Weather Roundup
Issued by NWS

Home | Current Version | Previous Version | Graphics & Text | Print | Product List | Glossary Off
Versions: 1 2 3 4 5 6 7 8 9 10 11 12 13 14 15 16 17 18 19 20 21 22 23 24 25 26 27 28 29 30 31 32 33 34 35 36 37 38 39 40 41 42 43 44 45 46 47 48 49 50

597
ASUS43 KMKX 292111
RWRWI

WISCONSIN REGIONAL WEATHER ROUNDUP
NATIONAL WEATHER SERVICE MILWAUKEE/SULLIVAN WI
400 PM CDT FRI APR 29 2016

NOTE: "FAIR" INDICATES FEW OR NO CLOUDS BELOW 12,000 FEET WITH NO
SIGNIFICANT WEATHER AND/OR OBSTRUCTIONS TO VISIBILITY.

WIZ001-002-006>008-014>016-023>028-292200-
NORTHWEST WISCONSIN

CITY           SKY/WX    TMP DP  RH WIND       PRES   REMARKS
SUPERIOR ARPT  SUNNY     47  32  56 NE12      30.18S
ASHLAND        SUNNY     53  34  48 NE17      30.18S
HAYWARD        SUNNY     55  30  38 N16G24    30.14R
SIREN          SUNNY     60  28  30 E9G17     30.11S
CUMBERLAND     SUNNY     55  30  38 NE7       30.10S
RICE LAKE      SUNNY     59  29  31 NE10      30.11S
CHETEK         MOSUNNY   61  33  35 CALM      30.10S
LADYSMITH      MOSUNNY   59  30  33 CALM      30.10F
EAU CLAIRE     PTSUNNY   57  37  47 E9        30.11S
MENOMONIE      MOSUNNY   59  46  60 S9        30.12R
NEW RICHMOND   SUNNY     58  32  36 NE3       30.12R
OSCEOLA        SUNNY     60  32  35 E7        30.14S
$$

WIZ003>005-009-010-017-018-292200-
NORTH CENTRAL WISCONSIN

CITY           SKY/WX    TMP DP  RH WIND       PRES   REMARKS
MANITOWISH WTR MOSUNNY   57  32  38 N6        30.09F
ARBOR VITAE    PTSUNNY   57  32  39 CALM      30.10F
WOODRUFF       PTSUNNY   57  32  39 CALM      30.10F
RHINELANDER    PTSUNNY   56  32  40 E9        30.11F
EAGLE RIVER    MOSUNNY   56  28  34 E9        30.10F
LAND O LAKES   CLOUDY    57  29  34 E5        30.12F
PHILLIPS       SUNNY     58  34  40 CALM      30.08F
TOMAHAWK       CLOUDY    55  34  45 NE3       30.11S
MEDFORD        CLOUDY    53  35  51 CALM      30.10F
MERRILL        CLOUDY    56  35  45 S3        30.10S
$$

WIZ029-030-035-036-043>047-292200-
CENTRAL WISCONSIN

CITY           SKY/WX    TMP DP  RH WIND       PRES   REMARKS
WAUSAU         CLOUDY    57  34  41 SE7       30.08F
MOSINEE        CLOUDY    54  34  47 VRB8      30.12S
MARSHFIELD     CLOUDY    55  37  50 CALM      30.11R
STEVENS POINT  CLOUDY    53  32  45 NE5       30.12S
WAUPACA        PTSUNNY   58  32  37 E7        30.12F
WAUTOMA        NOT AVBL
WISC RAPIDS    MOSUNNY   57  32  38 VRB5      30.12S
CAMP DOUGLAS   PTSUNNY   53  41  63 E5        30.11S
$$

WIZ011>013-019>022-031-037>040-048>050-292200-
NORTHEAST WISCONSIN

CITY           SKY/WX    TMP DP  RH WIND       PRES   REMARKS
ANTIGO         CLOUDY    54  32  42 CALM      30.10S
SHAWANO        CLOUDY    56  33  41 E7        30.12F
OCONTO         CLOUDY    52  30  42 SE7       30.12F
STURGEON BAY   SUNNY     52  28  40 N6        30.15F
GREEN BAY      SUNNY     55  35  47 NE5       30.13F
MANITOWOC      SUNNY     52  27  38 MISG      30.12F
APPLETON       PTSUNNY   54  30  40 NE6       30.10F
CLINTONVILLE   CLOUDY    54  32  43 SE7       30.12R
OSHKOSH        SUNNY     54  32  43 N9        30.11S
$$

WIZ032>034-041-042-053>061-292200-
SOUTHWEST WISCONSIN

CITY           SKY/WX    TMP DP  RH WIND       PRES   REMARKS
LA CROSSE      CLOUDY    54  38  54 N7        30.12S
SPARTA         CLOUDY    52  39  61 NE5       30.13R
VIROQUA        CLOUDY    48  37  65 E6        30.12S
BOSCOBEL       CLOUDY    53  37  54 VRB6      30.13R
PRAIRIE DU CHI CLOUDY    51  36  55 E7        30.12R
PLATTEVILLE    CLOUDY    48  41  75 E8        30.12R
$$

WIZ056-057-062-063-064-067-068-292200-
SOUTH CENTRAL WISCONSIN

CITY           SKY/WX    TMP DP  RH WIND       PRES   REMARKS
REEDSBURG      CLOUDY    54  37  52 CALM      30.10F
BARABOO/DELLS  CLOUDY    55  36  48 NE8       30.10F
LONE ROCK      CLOUDY    52  39  61 E5        30.12S
MINERAL POINT  CLOUDY    50  39  66 E5        30.11F
MADISON        CLOUDY    51  38  60 E6        30.12R
MIDDLETON      CLOUDY    51  39  61 E8        30.12S
WATERTOWN      CLOUDY    53  37  56 NE7       30.11R
MONROE         CLOUDY    46  37  71 E5        30.12R
JANESVILLE     CLOUDY    48  39  71 VRB6      30.13R
$$

WIZ051-052-058>065-066-070>072-292200-
SOUTHEAST WISCONSIN

CITY           SKY/WX    TMP DP  RH WIND       PRES   REMARKS
MILWAUKEE      MOSUNNY   46  38  73 NE9       30.14R
WAUKESHA       CLOUDY    48  36  61 NE14G21   30.13S
MILWAUKEE/TIMM PTSUNNY   46  34  61 NE13      30.14R
RACINE         CLOUDY    45  36  70 NE9       30.15S
BURLINGTON     CLOUDY    47  37  69 CALM      30.13R
KENOSHA        CLOUDY    48  38  68 E9        30.13R
FOND DU LAC    SUNNY     56  33  42 N12       30.11R
SHEBOYGAN      SUNNY     52  29  41 NE14      30.13R
WEST BEND      MOSUNNY   52  30  43 E14G21    30.10F
JUNEAU         MOSUNNY   54  35  49 N8        30.11F
$$

LSZ147-162-292200-
LAKE SUPERIOR

STATION/POSITION TIME  TEMP    WIND        PRES    WAVE
                       AIR SEA DIR/SP/G            HT/PER
                 (UTC) (F)     (DEG/KT/KT) (MB)    (FT/S)
W MID LAKE BUOY  2050   38 37  320/  4/  6 1023.7F   1
DEVILS ISLAND    2100   38      50/  7/  8 1023.4F
SAXON HARBOR     2000   39      30/  7/  8 1022.4
$$

LMZ867-665-643>646-292200-
LAKE MICHIGAN

STATION/POSITION TIME  TEMP    WIND        PRES    WAVE
                       AIR SEA DIR/SP/G            HT/PER
                 (UTC) (F)     (DEG/KT/KT) (MB)    (FT/S)
CHAMBERS ISLAND  2000   47     330/  4/  4 1021.7S
N MID LAKE BUOY  2050   41 39  320/  4/  4 1020.7F   1
NORTHPORT PIER   2000   43     140/  2/  2 1021.3R
ALGOMA LAKESHORE 2015           70/ 12/ 13   N/A
KEWAUNEE LAKESHO 2000   44      30/  7/  8 1020.5F
SHEBOYGAN LAKESH 2100   42      20/  6/  6 1021.2R
PORT WASHINGTON  2020   44      90/  6/ 19 1021.7R
S MID LAKE BUOY  2050   40 40  360/ 10/ 12 1020.0S   1/ 3
KENOSHA   LAKESH 2100   41      30/ 12/ 14 1020.7R
$$

TC  - TEMPERATURE IN CELSIUS
VSB - VISIBILITY IN STATUTE MILES
WCI - WIND CHILL INDEX
HX  - HEAT INDEX





USA.gov is the U.S. government's official web portal to all federal, state and local government web resources and services.